Time,TemperatureF,DewpointF,PressureIn,WindDirection,WindDirectionDegrees,WindSpeedMPH,WindSpeedGustMPH,Humidity,HourlyPrecipIn,Conditions,Clouds,dailyrainin,SoftwareType,DateUTC
2013-08-30 00:03:00,80.3,73.2,29.83,SSW,195,2.0,3.0,79,0.00,,CLR,0.00,VWS V14.01,2013-08-30 05:03:00,
2013-08-30 00:08:00,80.2,73.1,29.83,SSW,195,2.0,3.0,79,0.00,,CLR,0.00,VWS V14.01,2013-08-30 05:08:00,
2013-08-30 00:13:00,80.1,73.0,29.83,SSW,195,1.0,3.0,79,0.00,,CLR,0.00,VWS V14.01,2013-08-30 05:13:00,
2013-08-30 00:18:00,80.1,72.6,29.83,SSW,195,2.0,2.0,78,0.00,,CLR,0.00,VWS V14.01,2013-08-30 05:18:00,
2013-08-30 00:23:00,80.1,72.6,29.83,SSW,212,1.0,3.0,78,0.00,,CLR,0.00,VWS V14.01,2013-08-30 05:23:00,
2013-08-30 00:28:00,80.2,72.7,29.83,SSW,197,3.0,4.0,78,0.00,,CLR,0.00,VWS V14.01,2013-08-30 05:28:00,
2013-08-30 00:33:00,80.2,72.7,29.83,SSW,197,3.0,4.0,78,0.00,,CLR,0.00,VWS V14.01,2013-08-30 05:33:00,
2013-08-30 00:38:00,80.2,72.7,29.83,SSW,203,2.0,2.0,78,0.00,,CLR,0.00,VWS V14.01,2013-08-30 05:38:00,
2013-08-30 00:43:00,80.2,72.7,29.84,SSW,198,3.0,4.0,78,0.00,,CLR,0.00,VWS V14.01,2013-08-30 05:43:00,
2013-08-30 00:48:00,80.2,72.7,29.83,SSW,192,2.0,4.0,78,0.00,,CLR,0.00,VWS V14.01,2013-08-30 05:48:00,
2013-08-30 00:53:00,80.2,72.7,29.84,South,189,0.0,3.0,78,0.00,,CLR,0.00,VWS V14.01,2013-08-30 05:53:00,
2013-08-30 00:58:00,80.2,72.3,29.84,South,183,2.0,4.0,77,0.00,,CLR,0.00,VWS V14.01,2013-08-30 05:58:00,
2013-08-30 01:03:00,80.3,72.1,29.84,South,183,1.0,3.0,76,0.00,,CLR,0.00,VWS V14.01,2013-08-30 06:03:00,
2013-08-30 01:08:00,80.3,72.1,29.83,South,184,1.0,3.0,76,0.00,,CLR,0.00,VWS V14.01,2013-08-30 06:08:00,
2013-08-30 01:13:00,80.5,71.8,29.83,South,185,2.0,3.0,75,0.00,,CLR,0.00,VWS V14.01,2013-08-30 06:13:00,
2013-08-30 01:18:00,80.7,71.7,29.83,South,185,3.0,3.0,74,0.00,,CLR,0.00,VWS V14.01,2013-08-30 06:18:00,
2013-08-30 01:23:00,80.8,71.7,29.84,South,185,1.0,3.0,74,0.00,,CLR,0.00,VWS V14.01,2013-08-30 06:23:00,
2013-08-30 01:28:00,80.8,71.7,29.84,South,185,2.0,4.0,74,0.00,,CLR,0.00,VWS V14.01,2013-08-30 06:28:00,
2013-08-30 01:33:00,80.7,71.7,29.84,SSW,203,2.0,7.0,74,0.00,,CLR,0.00,VWS V14.01,2013-08-30 06:33:00,
2013-08-30 01:38:00,80.7,71.7,29.83,SW,231,2.0,3.0,74,0.00,,CLR,0.00,VWS V14.01,2013-08-30 06:38:00,
2013-08-30 01:43:00,80.7,71.2,29.84,SW,233,3.0,3.0,73,0.00,,CLR,0.00,VWS V14.01,2013-08-30 06:43:00,
2013-08-30 01:48:00,80.8,71.3,29.84,SW,234,1.0,3.0,73,0.00,,CLR,0.00,VWS V14.01,2013-08-30 06:48:00,
2013-08-30 01:53:00,80.9,71.4,29.84,WSW,238,1.0,4.0,73,0.00,,CLR,0.00,VWS V14.01,2013-08-30 06:53:00,
2013-08-30 01:58:00,80.9,71.4,29.84,WSW,238,2.0,3.0,73,0.00,,CLR,0.00,VWS V14.01,2013-08-30 06:58:00,
2013-08-30 02:03:00,80.8,71.3,29.84,SW,224,2.0,4.0,73,0.00,,CLR,0.00,VWS V14.01,2013-08-30 07:03:00,
2013-08-30 02:08:00,80.7,71.2,29.84,SW,214,0.0,3.0,73,0.00,,CLR,0.00,VWS V14.01,2013-08-30 07:08:00,
2013-08-30 02:13:00,80.5,71.5,29.83,SW,214,2.0,3.0,74,0.00,,CLR,0.00,VWS V14.01,2013-08-30 07:13:00,
2013-08-30 02:18:00,80.2,71.2,29.83,SW,215,1.0,3.0,74,0.00,,CLR,0.00,VWS V14.01,2013-08-30 07:18:00,
2013-08-30 02:23:00,80.0,71.0,29.83,SW,215,2.0,3.0,74,0.00,,CLR,0.00,VWS V14.01,2013-08-30 07:23:00,
2013-08-30 02:28:00,79.8,70.8,29.83,WSW,237,0.0,3.0,74,0.00,,CLR,0.00,VWS V14.01,2013-08-30 07:28:00,
2013-08-30 02:33:00,79.7,70.7,29.83,WSW,237,0.0,1.0,74,0.00,,CLR,0.00,VWS V14.01,2013-08-30 07:33:00,
2013-08-30 02:38:00,79.5,70.9,29.83,WSW,237,3.0,3.0,75,0.00,,CLR,0.00,VWS V14.01,2013-08-30 07:38:00,
2013-08-30 02:43:00,79.4,70.8,29.83,WSW,237,1.0,2.0,75,0.00,,CLR,0.00,VWS V14.01,2013-08-30 07:43:00,
2013-08-30 02:48:00,79.2,70.6,29.83,WSW,237,0.0,3.0,75,0.00,,CLR,0.00,VWS V14.01,2013-08-30 07:48:00,
2013-08-30 02:53:00,79.1,70.5,29.83,WSW,237,0.0,2.0,75,0.00,,CLR,0.00,VWS V14.01,2013-08-30 07:53:00,
2013-08-30 02:58:00,79.1,70.1,29.83,WSW,237,2.0,3.0,74,0.00,,CLR,0.00,VWS V14.01,2013-08-30 07:58:00,
2013-08-30 03:03:00,79.2,70.2,29.83,WSW,237,1.0,2.0,74,0.00,,CLR,0.00,VWS V14.01,2013-08-30 08:03:00,
2013-08-30 03:08:00,79.2,70.2,29.83,WSW,237,1.0,1.0,74,0.00,,CLR,0.00,VWS V14.01,2013-08-30 08:08:00,
2013-08-30 03:13:00,79.1,70.1,29.83,WSW,237,0.0,3.0,74,0.00,,CLR,0.00,VWS V14.01,2013-08-30 08:13:00,
2013-08-30 03:18:00,79.1,70.1,29.83,WSW,237,0.0,4.0,74,0.00,,CLR,0.00,VWS V14.01,2013-08-30 08:18:00,
2013-08-30 03:23:00,79.0,70.0,29.83,WSW,237,0.0,0.0,74,0.00,,CLR,0.00,VWS V14.01,2013-08-30 08:23:00,
2013-08-30 03:28:00,78.9,69.9,29.83,WSW,237,2.0,3.0,74,0.00,,CLR,0.00,VWS V14.01,2013-08-30 08:28:00,
2013-08-30 03:33:00,78.8,69.8,29.83,WSW,237,0.0,2.0,74,0.00,,CLR,0.00,VWS V14.01,2013-08-30 08:33:00,
2013-08-30 03:38:00,78.6,70.0,29.83,WSW,237,2.0,2.0,75,0.00,,CLR,0.00,VWS V14.01,2013-08-30 08:38:00,
2013-08-30 03:43:00,78.4,69.8,29.83,WSW,237,0.0,2.0,75,0.00,,CLR,0.00,VWS V14.01,2013-08-30 08:43:00,
2013-08-30 03:48:00,78.3,69.7,29.83,WSW,237,0.0,1.0,75,0.00,,CLR,0.00,VWS V14.01,2013-08-30 08:48:00,
2013-08-30 03:54:00,78.1,69.5,29.83,WSW,237,1.0,2.0,75,0.00,,CLR,0.00,VWS V14.01,2013-08-30 08:54:00,
2013-08-30 03:59:00,77.9,69.3,29.83,WSW,237,0.0,2.0,75,0.00,,CLR,0.00,VWS V14.01,2013-08-30 08:59:00,
2013-08-30 04:04:00,77.7,69.5,29.83,WSW,237,1.0,1.0,76,0.00,,CLR,0.00,VWS V14.01,2013-08-30 09:04:00,
2013-08-30 04:09:00,77.5,69.3,29.83,WSW,237,1.0,2.0,76,0.00,,CLR,0.00,VWS V14.01,2013-08-30 09:09:00,
2013-08-30 04:14:00,77.4,69.2,29.83,WSW,237,0.0,1.0,76,0.00,,CLR,0.00,VWS V14.01,2013-08-30 09:14:00,
2013-08-30 04:19:00,77.3,69.2,29.83,WSW,237,1.0,1.0,76,0.00,,CLR,0.00,VWS V14.01,2013-08-30 09:19:00,
2013-08-30 04:24:00,76.9,69.2,29.83,WSW,237,1.0,2.0,77,0.00,,CLR,0.00,VWS V14.01,2013-08-30 09:24:00,
2013-08-30 04:29:00,76.0,68.7,29.83,WSW,237,2.0,3.0,78,0.00,,CLR,0.00,VWS V14.01,2013-08-30 09:29:00,
2013-08-30 04:34:00,75.5,68.5,29.83,WSW,237,1.0,2.0,79,0.00,,CLR,0.00,VWS V14.01,2013-08-30 09:34:00,
2013-08-30 04:39:00,75.6,68.6,29.83,SW,226,0.0,1.0,79,0.00,,CLR,0.00,VWS V14.01,2013-08-30 09:39:00,
2013-08-30 04:44:00,75.8,68.8,29.83,SW,226,0.0,0.0,79,0.00,,CLR,0.00,VWS V14.01,2013-08-30 09:44:00,
2013-08-30 04:49:00,75.8,68.8,29.82,SW,226,0.0,2.0,79,0.00,,CLR,0.00,VWS V14.01,2013-08-30 09:49:00,
2013-08-30 04:54:00,75.9,68.6,29.82,SW,226,1.0,2.0,78,0.00,,CLR,0.00,VWS V14.01,2013-08-30 09:54:00,
2013-08-30 04:59:00,75.8,68.5,29.82,SW,226,1.0,2.0,78,0.00,,CLR,0.00,VWS V14.01,2013-08-30 09:59:00,
2013-08-30 05:04:00,76.0,68.7,29.82,SW,225,2.0,4.0,78,0.00,,CLR,0.00,VWS V14.01,2013-08-30 10:04:00,
2013-08-30 05:09:00,76.0,68.7,29.82,SW,225,0.0,2.0,78,0.00,,CLR,0.00,VWS V14.01,2013-08-30 10:09:00,
2013-08-30 05:14:00,76.3,68.6,29.82,SW,225,1.0,2.0,77,0.00,,CLR,0.00,VWS V14.01,2013-08-30 10:14:00,
2013-08-30 05:19:00,76.2,68.5,29.82,SW,225,1.0,2.0,77,0.00,,CLR,0.00,VWS V14.01,2013-08-30 10:19:00,
2013-08-30 05:24:00,76.2,68.5,29.82,SW,225,0.0,1.0,77,0.00,,CLR,0.00,VWS V14.01,2013-08-30 10:24:00,
2013-08-30 05:29:00,76.0,68.3,29.82,SW,225,1.0,2.0,77,0.00,,CLR,0.00,VWS V14.01,2013-08-30 10:29:00,
2013-08-30 05:34:00,75.9,68.2,29.82,SW,225,1.0,1.0,77,0.00,,CLR,0.00,VWS V14.01,2013-08-30 10:34:00,
2013-08-30 05:39:00,75.7,68.4,29.82,SW,225,1.0,2.0,78,0.00,,CLR,0.00,VWS V14.01,2013-08-30 10:39:00,
2013-08-30 05:44:00,75.5,68.2,29.82,SW,225,2.0,2.0,78,0.00,,CLR,0.00,VWS V14.01,2013-08-30 10:44:00,
2013-08-30 05:49:00,75.3,68.3,29.82,SW,225,1.0,1.0,79,0.00,,CLR,0.00,VWS V14.01,2013-08-30 10:49:00,
2013-08-30 05:54:00,75.2,68.2,29.82,SW,225,2.0,2.0,79,0.00,,CLR,0.00,VWS V14.01,2013-08-30 10:54:00,
2013-08-30 05:59:00,75.1,68.2,29.82,SW,225,2.0,3.0,79,0.00,,CLR,0.00,VWS V14.01,2013-08-30 10:59:00,
2013-08-30 06:04:00,74.8,67.9,29.82,SW,225,1.0,1.0,79,0.00,,CLR,0.00,VWS V14.01,2013-08-30 11:04:00,
2013-08-30 06:09:00,74.7,68.1,29.82,SW,225,0.0,0.0,80,0.00,,CLR,0.00,VWS V14.01,2013-08-30 11:09:00,
2013-08-30 06:14:00,74.6,68.0,29.82,SW,225,0.0,0.0,80,0.00,,CLR,0.00,VWS V14.01,2013-08-30 11:14:00,
2013-08-30 06:19:00,74.6,68.0,29.82,SW,225,0.0,1.0,80,0.00,,CLR,0.00,VWS V14.01,2013-08-30 11:19:00,
2013-08-30 06:24:00,74.7,67.8,29.82,SW,225,1.0,2.0,79,0.00,,CLR,0.00,VWS V14.01,2013-08-30 11:24:00,
2013-08-30 06:29:00,74.8,67.5,29.82,SW,225,0.0,1.0,78,0.00,,CLR,0.00,VWS V14.01,2013-08-30 11:29:00,
2013-08-30 06:34:00,74.9,67.6,29.82,SW,225,0.0,1.0,78,0.00,,CLR,0.00,VWS V14.01,2013-08-30 11:34:00,
2013-08-30 06:39:00,74.9,67.6,29.82,SW,225,0.0,0.0,78,0.00,,CLR,0.00,VWS V14.01,2013-08-30 11:39:00,
2013-08-30 06:44:00,74.7,67.4,29.82,SW,225,0.0,0.0,78,0.00,,CLR,0.00,VWS V14.01,2013-08-30 11:44:00,
2013-08-30 06:49:00,74.6,67.3,29.82,SW,225,1.0,1.0,78,0.00,,CLR,0.00,VWS V14.01,2013-08-30 11:49:00,
2013-08-30 06:54:00,74.6,67.3,29.83,SW,225,0.0,1.0,78,0.00,,CLR,0.00,VWS V14.01,2013-08-30 11:54:00,
2013-08-30 06:59:00,74.6,67.3,29.82,SW,225,1.0,1.0,78,0.00,,CLR,0.00,VWS V14.01,2013-08-30 11:59:00,
2013-08-30 07:04:00,74.6,67.3,29.82,SW,225,1.0,1.0,78,0.00,,CLR,0.00,VWS V14.01,2013-08-30 12:04:00,
2013-08-30 07:09:00,74.6,67.3,29.82,SW,225,0.0,1.0,78,0.00,,CLR,0.00,VWS V14.01,2013-08-30 12:09:00,
2013-08-30 07:14:00,74.5,67.2,29.82,SW,225,0.0,1.0,78,0.00,,CLR,0.00,VWS V14.01,2013-08-30 12:14:00,
2013-08-30 07:19:00,74.4,67.5,29.83,SW,225,0.0,0.0,79,0.00,,CLR,0.00,VWS V14.01,2013-08-30 12:19:00,
2013-08-30 07:24:00,74.3,67.4,29.82,SW,225,0.0,0.0,79,0.00,,CLR,0.00,VWS V14.01,2013-08-30 12:24:00,
2013-08-30 07:29:00,74.4,67.5,29.82,SW,225,0.0,1.0,79,0.00,,CLR,0.00,VWS V14.01,2013-08-30 12:29:00,
2013-08-30 07:34:00,74.6,67.7,29.82,SW,225,0.0,0.0,79,0.00,,CLR,0.00,VWS V14.01,2013-08-30 12:34:00,
2013-08-30 07:39:00,74.8,67.9,29.83,SW,225,0.0,1.0,79,0.00,,CLR,0.00,VWS V14.01,2013-08-30 12:39:00,
2013-08-30 07:44:00,75.2,68.2,29.83,SW,225,0.0,1.0,79,0.00,,CLR,0.00,VWS V14.01,2013-08-30 12:44:00,
2013-08-30 07:49:00,75.5,68.2,29.82,SW,225,2.0,2.0,78,0.00,,CLR,0.00,VWS V14.01,2013-08-30 12:49:00,
2013-08-30 07:54:00,75.8,68.1,29.82,SW,225,1.0,3.0,77,0.00,,CLR,0.00,VWS V14.01,2013-08-30 12:54:00,
2013-08-30 07:59:00,76.2,68.1,29.83,SSW,212,3.0,4.0,76,0.00,,CLR,0.00,VWS V14.01,2013-08-30 12:59:00,
2013-08-30 08:11:00,76.8,68.3,29.82,SSW,212,3.0,3.0,75,0.00,,CLR,0.00,VWS V14.01,2013-08-30 13:11:00,
2013-08-30 08:16:00,77.1,69.0,29.83,SSW,212,1.0,2.0,76,0.00,,CLR,0.00,VWS V14.01,2013-08-30 13:16:00,
2013-08-30 08:21:00,77.5,68.6,29.82,SSW,212,1.0,3.0,74,0.00,,CLR,0.00,VWS V14.01,2013-08-30 13:21:00,
2013-08-30 08:26:00,78.0,68.7,29.83,SW,236,3.0,4.0,73,0.00,,CLR,0.00,VWS V14.01,2013-08-30 13:26:00,
2013-08-30 08:31:00,78.4,68.6,29.83,WSW,238,1.0,4.0,72,0.00,,CLR,0.00,VWS V14.01,2013-08-30 13:31:00,
2013-08-30 08:36:00,78.8,68.6,29.83,WSW,238,2.0,5.0,71,0.00,,CLR,0.00,VWS V14.01,2013-08-30 13:36:00,
2013-08-30 08:41:00,79.3,68.7,29.83,SW,225,4.0,4.0,70,0.00,,CLR,0.00,VWS V14.01,2013-08-30 13:41:00,
2013-08-30 08:46:00,79.7,69.1,29.83,SW,223,4.0,5.0,70,0.00,,CLR,0.00,VWS V14.01,2013-08-30 13:46:00,
2013-08-30 08:51:00,80.0,69.3,29.83,South,191,5.0,5.0,70,0.00,,CLR,0.00,VWS V14.01,2013-08-30 13:51:00,
2013-08-30 08:56:00,80.2,68.7,29.83,SW,226,3.0,6.0,68,0.00,,CLR,0.00,VWS V14.01,2013-08-30 13:56:00,
2013-08-30 09:01:00,80.4,68.9,29.83,SSW,206,5.0,7.0,68,0.00,,CLR,0.00,VWS V14.01,2013-08-30 14:01:00,
2013-08-30 09:06:00,80.5,68.5,29.83,SSW,192,4.0,6.0,67,0.00,,CLR,0.00,VWS V14.01,2013-08-30 14:06:00,
2013-08-30 09:11:00,80.7,68.7,29.82,SW,224,4.0,4.0,67,0.00,,CLR,0.00,VWS V14.01,2013-08-30 14:11:00,
2013-08-30 09:16:00,80.9,68.5,29.82,SW,234,3.0,4.0,66,0.00,,CLR,0.00,VWS V14.01,2013-08-30 14:16:00,
2013-08-30 09:21:00,81.0,68.6,29.83,SSW,208,3.0,4.0,66,0.00,,CLR,0.00,VWS V14.01,2013-08-30 14:21:00,
2013-08-30 09:26:00,81.4,69.4,29.83,West,280,2.0,2.0,67,0.00,,CLR,0.00,VWS V14.01,2013-08-30 14:26:00,
2013-08-30 09:32:00,81.8,68.9,29.83,WSW,241,2.0,3.0,65,0.00,,CLR,0.00,VWS V14.01,2013-08-30 14:32:00,
2013-08-30 09:37:00,81.9,68.1,29.83,SW,234,4.0,9.0,63,0.00,,CLR,0.00,VWS V14.01,2013-08-30 14:37:00,
2013-08-30 09:42:00,81.8,68.4,29.83,SW,220,2.0,7.0,64,0.00,,CLR,0.00,VWS V14.01,2013-08-30 14:42:00,
2013-08-30 09:47:00,81.8,68.4,29.83,WSW,250,3.0,3.0,64,0.00,,CLR,0.00,VWS V14.01,2013-08-30 14:47:00,
2013-08-30 09:52:00,82.1,69.2,29.83,SW,214,2.0,3.0,65,0.00,,CLR,0.00,VWS V14.01,2013-08-30 14:52:00,
2013-08-30 09:57:00,82.4,69.0,29.83,WSW,244,3.0,5.0,64,0.00,,CLR,0.00,VWS V14.01,2013-08-30 14:57:00,
2013-08-30 10:02:00,82.5,69.6,29.83,WSW,254,3.0,4.0,65,0.00,,CLR,0.00,VWS V14.01,2013-08-30 15:02:00,
2013-08-30 10:07:00,82.8,69.8,29.83,SW,222,2.0,3.0,65,0.00,,CLR,0.00,VWS V14.01,2013-08-30 15:07:00,
2013-08-30 10:12:00,83.3,69.9,29.83,SW,235,3.0,4.0,64,0.00,,CLR,0.00,VWS V14.01,2013-08-30 15:12:00,
2013-08-30 10:17:00,83.4,69.0,29.83,West,270,5.0,5.0,62,0.00,,CLR,0.00,VWS V14.01,2013-08-30 15:17:00,
2013-08-30 10:22:00,83.4,69.5,29.83,SW,236,0.0,3.0,63,0.00,,CLR,0.00,VWS V14.01,2013-08-30 15:22:00,
2013-08-30 10:27:00,83.9,70.4,29.83,SSW,208,1.0,3.0,64,0.00,,CLR,0.00,VWS V14.01,2013-08-30 15:27:00,
2013-08-30 10:32:00,84.6,70.6,29.82,SW,233,3.0,5.0,63,0.00,,CLR,0.00,VWS V14.01,2013-08-30 15:32:00,
2013-08-30 10:37:00,84.5,70.5,29.82,SSW,197,1.0,6.0,63,0.00,,CLR,0.00,VWS V14.01,2013-08-30 15:37:00,
2013-08-30 10:42:00,84.9,70.4,29.82,SW,222,2.0,5.0,62,0.00,,CLR,0.00,VWS V14.01,2013-08-30 15:42:00,
2013-08-30 10:47:00,85.4,71.4,29.82,SW,226,3.0,5.0,63,0.00,,CLR,0.00,VWS V14.01,2013-08-30 15:47:00,
2013-08-30 10:52:00,85.7,70.7,29.82,SW,236,3.0,6.0,61,0.00,,CLR,0.00,VWS V14.01,2013-08-30 15:52:00,
2013-08-30 10:57:00,86.0,70.5,29.82,WSW,253,2.0,3.0,60,0.00,,CLR,0.00,VWS V14.01,2013-08-30 15:57:00,
2013-08-30 11:02:00,86.1,70.6,29.82,SW,235,3.0,6.0,60,0.00,,CLR,0.00,VWS V14.01,2013-08-30 16:02:00,
2013-08-30 11:07:00,86.5,71.0,29.82,SW,219,5.0,5.0,60,0.00,,CLR,0.00,VWS V14.01,2013-08-30 16:07:00,
2013-08-30 11:12:00,86.6,70.1,29.82,WSW,252,3.0,4.0,58,0.00,,CLR,0.00,VWS V14.01,2013-08-30 16:12:00,
2013-08-30 11:17:00,86.8,70.8,29.82,WSW,245,2.0,7.0,59,0.00,,CLR,0.00,VWS V14.01,2013-08-30 16:17:00,
2013-08-30 11:22:00,87.3,71.7,29.82,WSW,237,3.0,3.0,60,0.00,,CLR,0.00,VWS V14.01,2013-08-30 16:22:00,
2013-08-30 11:27:00,87.7,70.6,29.82,SW,214,3.0,7.0,57,0.00,,CLR,0.00,VWS V14.01,2013-08-30 16:27:00,
2013-08-30 11:32:00,87.7,70.6,29.81,SW,217,2.0,4.0,57,0.00,,CLR,0.00,VWS V14.01,2013-08-30 16:32:00,
2013-08-30 11:37:00,88.3,71.2,29.82,SSW,197,5.0,7.0,57,0.00,,CLR,0.00,VWS V14.01,2013-08-30 16:37:00,
2013-08-30 11:42:00,88.6,70.9,29.81,WSW,252,3.0,4.0,56,0.00,,CLR,0.00,VWS V14.01,2013-08-30 16:42:00,
2013-08-30 11:47:00,88.9,70.7,29.81,WSW,242,1.0,5.0,55,0.00,,CLR,0.00,VWS V14.01,2013-08-30 16:47:00,
2013-08-30 11:52:00,89.2,71.5,29.81,SW,229,1.0,4.0,56,0.00,,CLR,0.00,VWS V14.01,2013-08-30 16:52:00,
2013-08-30 11:57:00,89.7,71.9,29.81,SW,231,2.0,4.0,56,0.00,,CLR,0.00,VWS V14.01,2013-08-30 16:57:00,
2013-08-30 12:02:00,89.6,72.4,29.81,SSW,197,4.0,6.0,57,0.00,,CLR,0.00,VWS V14.01,2013-08-30 17:02:00,
2013-08-30 12:07:00,89.9,71.6,29.81,WSW,249,0.0,4.0,55,0.00,,CLR,0.00,VWS V14.01,2013-08-30 17:07:00,
2013-08-30 12:12:00,90.1,71.8,29.81,SW,225,3.0,4.0,55,0.00,,CLR,0.00,VWS V14.01,2013-08-30 17:12:00,
2013-08-30 12:17:00,90.2,71.9,29.81,SW,233,2.0,5.0,55,0.00,,CLR,0.00,VWS V14.01,2013-08-30 17:17:00,
2013-08-30 12:22:00,90.4,71.5,29.81,WNW,292,2.0,3.0,54,0.00,,CLR,0.00,VWS V14.01,2013-08-30 17:22:00,
2013-08-30 12:27:00,90.9,72.0,29.81,WSW,237,4.0,4.0,54,0.00,,CLR,0.00,VWS V14.01,2013-08-30 17:27:00,
2013-08-30 12:32:00,91.3,71.8,29.81,WSW,248,2.0,3.0,53,0.00,,CLR,0.00,VWS V14.01,2013-08-30 17:32:00,
2013-08-30 12:37:00,91.4,70.7,29.81,WSW,252,0.0,3.0,51,0.00,,CLR,0.00,VWS V14.01,2013-08-30 17:37:00,
2013-08-30 12:42:00,91.4,71.3,29.80,SSW,208,3.0,5.0,52,0.00,,CLR,0.00,VWS V14.01,2013-08-30 17:42:00,
2013-08-30 12:48:00,91.7,71.6,29.80,WSW,242,0.0,4.0,52,0.00,,CLR,0.00,VWS V14.01,2013-08-30 17:48:00,
2013-08-30 12:52:00,91.6,72.1,29.80,SSW,208,4.0,5.0,53,0.00,,CLR,0.00,VWS V14.01,2013-08-30 17:52:00,
2013-08-30 12:58:00,92.0,71.9,29.80,SW,228,2.0,6.0,52,0.00,,CLR,0.00,VWS V14.01,2013-08-30 17:58:00,
2013-08-30 13:03:00,92.3,71.6,29.80,SW,218,3.0,5.0,51,0.00,,CLR,0.00,VWS V14.01,2013-08-30 18:03:00,
2013-08-30 13:08:00,92.7,71.9,29.80,South,187,4.0,7.0,51,0.00,,CLR,0.00,VWS V14.01,2013-08-30 18:08:00,
2013-08-30 13:13:00,93.0,72.2,29.80,WSW,253,2.0,4.0,51,0.00,,CLR,0.00,VWS V14.01,2013-08-30 18:13:00,
2013-08-30 13:18:00,93.0,72.2,29.79,WSW,249,5.0,6.0,51,0.00,,CLR,0.00,VWS V14.01,2013-08-30 18:18:00,
2013-08-30 13:23:00,93.3,71.9,29.79,SSW,192,4.0,5.0,50,0.00,,CLR,0.00,VWS V14.01,2013-08-30 18:23:00,
2013-08-30 13:28:00,93.8,71.8,29.79,WSW,249,2.0,4.0,49,0.00,,CLR,0.00,VWS V14.01,2013-08-30 18:28:00,
2013-08-30 13:33:00,94.0,71.3,29.79,SSW,211,3.0,3.0,48,0.00,,CLR,0.00,VWS V14.01,2013-08-30 18:33:00,
2013-08-30 13:38:00,94.0,71.9,29.79,SSW,209,2.0,4.0,49,0.00,,CLR,0.00,VWS V14.01,2013-08-30 18:38:00,
2013-08-30 13:43:00,94.5,71.8,29.78,SW,226,1.0,7.0,48,0.00,,CLR,0.00,VWS V14.01,2013-08-30 18:43:00,
2013-08-30 13:48:00,94.6,71.9,29.78,SW,235,4.0,7.0,48,0.00,,CLR,0.00,VWS V14.01,2013-08-30 18:48:00,
2013-08-30 13:53:00,94.5,71.8,29.78,WSW,243,4.0,5.0,48,0.00,,CLR,0.00,VWS V14.01,2013-08-30 18:53:00,
2013-08-30 13:58:00,94.6,72.5,29.78,WSW,245,1.0,3.0,49,0.00,,CLR,0.00,VWS V14.01,2013-08-30 18:58:00,
2013-08-30 14:03:00,95.0,71.6,29.78,SSW,205,5.0,6.0,47,0.00,,CLR,0.00,VWS V14.01,2013-08-30 19:03:00,
2013-08-30 14:08:00,95.2,71.8,29.78,WSW,238,3.0,4.0,47,0.00,,CLR,0.00,VWS V14.01,2013-08-30 19:08:00,
2013-08-30 14:13:00,95.6,71.5,29.78,WSW,241,3.0,6.0,46,0.00,,CLR,0.00,VWS V14.01,2013-08-30 19:13:00,
2013-08-30 14:18:00,96.0,72.5,29.78,West,260,2.0,6.0,47,0.00,,CLR,0.00,VWS V14.01,2013-08-30 19:18:00,
2013-08-30 14:23:00,96.4,71.6,29.78,SW,222,5.0,5.0,45,0.00,,CLR,0.00,VWS V14.01,2013-08-30 19:23:00,
2013-08-30 14:28:00,96.3,71.5,29.77,SW,233,3.0,4.0,45,0.00,,CLR,0.00,VWS V14.01,2013-08-30 19:28:00,
2013-08-30 14:33:00,96.0,71.2,29.77,WSW,250,4.0,4.0,45,0.00,,CLR,0.00,VWS V14.01,2013-08-30 19:33:00,
2013-08-30 14:38:00,95.9,71.8,29.77,SSW,197,3.0,6.0,46,0.00,,CLR,0.00,VWS V14.01,2013-08-30 19:38:00,
2013-08-30 14:43:00,96.4,71.6,29.77,SW,231,3.0,4.0,45,0.00,,CLR,0.00,VWS V14.01,2013-08-30 19:43:00,
2013-08-30 14:48:00,96.9,72.1,29.77,SW,233,5.0,5.0,45,0.00,,CLR,0.00,VWS V14.01,2013-08-30 19:48:00,
2013-08-30 14:53:00,97.1,70.2,29.76,SSW,211,7.0,7.0,42,0.00,,CLR,0.00,VWS V14.01,2013-08-30 19:53:00,
2013-08-30 14:58:00,97.4,70.5,29.76,WSW,243,4.0,5.0,42,0.00,,CLR,0.00,VWS V14.01,2013-08-30 19:58:00,
2013-08-30 15:03:00,97.6,69.2,29.76,SW,223,3.0,7.0,40,0.00,,CLR,0.00,VWS V14.01,2013-08-30 20:03:00,
2013-08-30 15:09:00,97.6,69.9,29.76,WSW,239,5.0,7.0,41,0.00,,CLR,0.00,VWS V14.01,2013-08-30 20:09:00,
2013-08-30 15:14:00,97.3,69.7,29.76,WSW,249,4.0,6.0,41,0.00,,CLR,0.00,VWS V14.01,2013-08-30 20:14:00,
2013-08-30 15:19:00,97.4,69.1,29.76,SW,234,6.0,6.0,40,0.00,,CLR,0.00,VWS V14.01,2013-08-30 20:19:00,
2013-08-30 15:24:00,97.6,68.5,29.75,SW,234,3.0,6.0,39,0.00,,CLR,0.00,VWS V14.01,2013-08-30 20:24:00,
2013-08-30 15:29:00,97.6,68.5,29.75,SW,233,10.0,10.0,39,0.00,,CLR,0.00,VWS V14.01,2013-08-30 20:29:00,
2013-08-30 15:34:00,97.8,68.7,29.75,SW,236,5.0,5.0,39,0.00,,CLR,0.00,VWS V14.01,2013-08-30 20:34:00,
2013-08-30 15:39:00,97.9,68.0,29.75,WSW,239,4.0,8.0,38,0.00,,CLR,0.00,VWS V14.01,2013-08-30 20:39:00,
2013-08-30 15:44:00,97.9,68.0,29.75,SW,221,3.0,6.0,38,0.00,,CLR,0.00,VWS V14.01,2013-08-30 20:44:00,
2013-08-30 15:49:00,98.1,68.9,29.75,SW,220,5.0,8.0,39,0.00,,CLR,0.00,VWS V14.01,2013-08-30 20:49:00,
2013-08-30 15:54:00,98.2,69.0,29.75,West,278,3.0,4.0,39,0.00,,CLR,0.00,VWS V14.01,2013-08-30 20:54:00,
2013-08-30 15:59:00,98.3,69.1,29.75,WSW,246,2.0,3.0,39,0.00,,CLR,0.00,VWS V14.01,2013-08-30 20:59:00,
2013-08-30 16:04:00,98.3,69.1,29.75,SW,220,5.0,6.0,39,0.00,,CLR,0.00,VWS V14.01,2013-08-30 21:04:00,
2013-08-30 16:09:00,98.4,68.4,29.74,WSW,237,6.0,9.0,38,0.00,,CLR,0.00,VWS V14.01,2013-08-30 21:09:00,
2013-08-30 16:14:00,98.5,68.5,29.74,WSW,241,4.0,8.0,38,0.00,,CLR,0.00,VWS V14.01,2013-08-30 21:14:00,
2013-08-30 16:19:00,98.6,69.4,29.74,SSW,210,3.0,5.0,39,0.00,,CLR,0.00,VWS V14.01,2013-08-30 21:19:00,
2013-08-30 16:24:00,98.7,69.5,29.74,WSW,251,1.0,5.0,39,0.00,,CLR,0.00,VWS V14.01,2013-08-30 21:24:00,
2013-08-30 16:29:00,98.7,68.7,29.74,WSW,240,2.0,5.0,38,0.00,,CLR,0.00,VWS V14.01,2013-08-30 21:29:00,
2013-08-30 16:34:00,98.8,68.8,29.74,WSW,237,2.0,4.0,38,0.00,,CLR,0.00,VWS V14.01,2013-08-30 21:34:00,
2013-08-30 16:39:00,99.1,69.8,29.74,SW,235,2.0,5.0,39,0.00,,CLR,0.00,VWS V14.01,2013-08-30 21:39:00,
2013-08-30 16:44:00,99.1,70.6,29.74,WSW,239,0.0,4.0,40,0.00,,FEW070,0.00,VWS V14.01,2013-08-30 21:44:00,
2013-08-30 16:49:00,98.9,69.6,29.74,SW,222,1.0,6.0,39,0.00,,FEW070,0.00,VWS V14.01,2013-08-30 21:49:00,
2013-08-30 16:54:00,98.7,68.7,29.74,WSW,248,5.0,7.0,38,0.00,,FEW070,0.00,VWS V14.01,2013-08-30 21:54:00,
2013-08-30 16:59:00,98.5,69.3,29.74,WSW,250,2.0,5.0,39,0.00,,FEW070,0.00,VWS V14.01,2013-08-30 21:59:00,
2013-08-30 17:04:00,98.3,69.8,29.74,SW,233,3.0,6.0,40,0.00,,FEW070,0.00,VWS V14.01,2013-08-30 22:04:00,
2013-08-30 17:09:00,98.1,70.4,29.74,SW,236,1.0,4.0,41,0.00,,FEW070,0.00,VWS V14.01,2013-08-30 22:09:00,
2013-08-30 17:14:00,97.9,70.9,29.73,NW,309,1.0,3.0,42,0.00,,FEW070,0.00,VWS V14.01,2013-08-30 22:14:00,
2013-08-30 17:19:00,97.5,71.3,29.73,WSW,250,4.0,4.0,43,0.00,,FEW070,0.00,VWS V14.01,2013-08-30 22:19:00,
2013-08-30 17:24:00,97.2,71.0,29.73,WNW,290,2.0,6.0,43,0.00,,FEW070,0.00,VWS V14.01,2013-08-30 22:24:00,
2013-08-30 19:04:00,93.5,72.7,29.73,NNE,32,1.0,2.0,51,0.00,,FEW070,0.00,VWS V14.01,2013-08-31 00:04:00,
2013-08-30 19:11:00,93.0,72.8,29.73,NNE,32,0.0,0.0,52,0.00,,CLR,0.00,VWS V14.01,2013-08-31 00:11:00,
2013-08-30 19:16:00,92.7,72.5,29.73,NNE,29,0.0,2.0,52,0.00,,CLR,0.00,VWS V14.01,2013-08-31 00:16:00,
2013-08-30 19:21:00,92.3,73.3,29.72,NNE,29,0.0,1.0,54,0.00,,CLR,0.00,VWS V14.01,2013-08-31 00:21:00,
2013-08-30 19:26:00,91.9,72.9,29.73,NNE,21,0.0,0.0,54,0.00,,CLR,0.00,VWS V14.01,2013-08-31 00:26:00,
2013-08-30 19:31:00,91.5,73.6,29.73,NNE,21,0.0,0.0,56,0.00,,CLR,0.00,VWS V14.01,2013-08-31 00:31:00,
2013-08-30 19:36:00,91.0,73.1,29.72,NNE,21,0.0,1.0,56,0.00,,CLR,0.00,VWS V14.01,2013-08-31 00:36:00,
2013-08-30 19:41:00,90.7,73.4,29.72,NNE,21,0.0,0.0,57,0.00,,CLR,0.00,VWS V14.01,2013-08-31 00:41:00,
2013-08-30 19:46:00,90.3,73.0,29.72,NNE,21,0.0,1.0,57,0.00,,CLR,0.00,VWS V14.01,2013-08-31 00:46:00,
2013-08-30 19:51:00,90.1,74.3,29.72,NNE,21,2.0,3.0,60,0.00,,CLR,0.00,VWS V14.01,2013-08-31 00:51:00,
2013-08-30 19:56:00,89.4,74.2,29.72,NNE,12,2.0,4.0,61,0.00,,CLR,0.00,VWS V14.01,2013-08-31 00:56:00,
2013-08-30 20:01:00,88.7,74.5,29.72,NNE,14,0.0,3.0,63,0.00,,CLR,0.00,VWS V14.01,2013-08-31 01:01:00,
2013-08-30 20:06:00,88.0,74.8,29.72,NNE,16,2.0,5.0,65,0.00,,CLR,0.00,VWS V14.01,2013-08-31 01:06:00,
2013-08-30 20:11:00,87.4,75.6,29.73,North,4,3.0,4.0,68,0.00,,CLR,0.00,VWS V14.01,2013-08-31 01:11:00,
2013-08-30 20:16:00,86.7,76.2,29.73,North,4,3.0,6.0,71,0.00,,CLR,0.00,VWS V14.01,2013-08-31 01:16:00,
2013-08-30 20:21:00,86.2,76.1,29.73,North,10,4.0,5.0,72,0.00,,CLR,0.00,VWS V14.01,2013-08-31 01:21:00,
2013-08-30 20:26:00,85.8,76.6,29.73,North,4,3.0,6.0,74,0.00,,CLR,0.00,VWS V14.01,2013-08-31 01:26:00,
2013-08-30 20:31:00,85.4,76.6,29.73,NNE,12,3.0,6.0,75,0.00,,CLR,0.00,VWS V14.01,2013-08-31 01:31:00,
2013-08-30 20:36:00,85.2,76.8,29.73,NNE,13,3.0,5.0,76,0.00,,CLR,0.00,VWS V14.01,2013-08-31 01:36:00,
2013-08-30 20:41:00,85.0,77.0,29.73,NNE,14,3.0,5.0,77,0.00,,FEW070,0.00,VWS V14.01,2013-08-31 01:41:00,
2013-08-30 20:46:00,84.8,76.8,29.73,NNE,18,2.0,3.0,77,0.00,,FEW070,0.00,VWS V14.01,2013-08-31 01:46:00,
2013-08-30 20:51:00,84.6,77.0,29.73,North,11,1.0,4.0,78,0.00,,FEW070,0.00,VWS V14.01,2013-08-31 01:51:00,
2013-08-30 20:56:00,84.4,76.8,29.73,North,9,1.0,3.0,78,0.00,,FEW070,0.00,VWS V14.01,2013-08-31 01:56:00,
2013-08-30 21:01:00,84.3,76.7,29.73,North,9,3.0,4.0,78,0.00,,FEW070,0.00,VWS V14.01,2013-08-31 02:01:00,
2013-08-30 21:06:00,84.1,76.9,29.73,North,9,3.0,3.0,79,0.00,,FEW070,0.00,VWS V14.01,2013-08-31 02:06:00,
2013-08-30 21:11:00,83.9,76.7,29.74,North,9,0.0,3.0,79,0.00,,FEW070,0.00,VWS V14.01,2013-08-31 02:11:00,